Location: Buffign�court
(47.8126°N, 6.0176°E)
Time: 02:31:35
(UTC+00:00)

Cosmos 2061 Rocket - Pass Details

Date: 16 June 2021
Orbit: 966 x 1013 km, 82.9° (Epoch: 25 July)

Event Time Altitude Azimuth Distance (km) Brightness Sun altitude
Rises 21:15:41 0° 352° (N) 3,761 8.4 -12.1°
Reaches altitude 10° 21:18:16 10° 354° (N) 2,806 7.5 -12.3°
Maximum altitude 21:24:43 72° 79° (E) 1,061 4.1 -12.9°
Enters shadow 21:29:45 17° 162° (SSE) 2,286 5.3 -13.3°
